�N����,����,�g�[���i���ԁj���x,�g�[�����x,��g�[���i���ցj���x,����
 2005/01/01, 0:00,15.9,44,5.9,-9.9
 2005/01/01, 0:15,14.5,46,5.9,-9.9
 2005/01/01, 0:30,13.7,47,5.8,-9.9
 2005/01/01, 0:45,13.1,48,5.8,-9.9
 2005/01/01, 1:00,12.7,49,5.7,-9.9
 2005/01/01, 1:15,12.3,51,5.6,-9.9
 2005/01/01, 1:30,12.1,52,5.6,-9.9
 2005/01/01, 1:45,11.7,53,5.5,-9.9
 2005/01/01, 2:00,11.5,54,5.5,-9.9
 2005/01/01, 2:15,11.1,54,5.4,-9.9
 2005/01/01, 2:30,10.9,55,5.4,-9.9
 2005/01/01, 2:45,10.6,55,5.4,-9.9
 2005/01/01, 3:00,10.4,56,5.3,-9.9
 2005/01/01, 3:15,10.2,56,5.4,-9.9
 2005/01/01, 3:30,10.1,57,5.3,-9.9
 2005/01/01, 3:45,10,57,5.3,-9.9
 2005/01/01, 4:00,9.8,58,5.3,-9.9
 2005/01/01, 4:15,9.7,58,5.3,-9.9
 2005/01/01, 4:30,9.6,58,5.3,-9.9
 2005/01/01, 4:45,9.4,59,5.2,-9.9
 2005/01/01, 5:00,9.3,59,5.2,-9.9
 2005/01/01, 5:15,9.2,59,5.2,-9.9
 2005/01/01, 5:30,9.1,59,5.1,-9.9
 2005/01/01, 5:45,8.9,59,5.2,-9.9
 2005/01/01, 6:00,8.9,59,5.1,-9.9
 2005/01/01, 6:15,8.9,59,5.1,-9.9
 2005/01/01, 6:30,8.7,60,5.1,-9.9
 2005/01/01, 6:45,8.7,60,5.1,-9.9
 2005/01/01, 7:00,8.7,61,5.1,-9.9
 2005/01/01, 7:15,16.5,39,5.1,-9.9
 2005/01/01, 7:30,18.6,35,5.3,-9.9
 2005/01/01, 7:45,16.3,42,5.1,-9.9
 2005/01/01, 8:00,20.4,32,5.2,-9.9
 2005/01/01, 8:15,21.1,32,5.3,-9.9
 2005/01/01, 8:30,19.4,36,5.3,-9.9
 2005/01/01, 8:45,20.8,35,5.6,-9.9
 2005/01/01, 9:00,20.1,32,5.6,-9.9
 2005/01/01, 9:15,20.1,31,6.1,-9.9
 2005/01/01, 9:30,19.9,33,6.2,-9.9
 2005/01/01, 9:45,19.7,33,6.1,-9.9
 2005/01/01,10:00,16.7,41,6.1,-9.9
 2005/01/01,10:15,21.5,37,6.3,-9.9
 2005/01/01,10:30,22.6,37,6.4,-9.9
 2005/01/01,10:45,23,35,6.5,-9.9
 2005/01/01,11:00,23.5,35,6.5,-9.9
 2005/01/01,11:15,23.6,33,6.5,-9.9
 2005/01/01,11:30,24.3,33,6.6,-9.9
 2005/01/01,11:45,25.1,32,6.8,-9.9
 2005/01/01,12:00,25.3,32,6.8,-9.9
 2005/01/01,12:15,26.1,31,7.1,-9.9
 2005/01/01,12:30,25.7,30,7.4,-9.9
 2005/01/01,12:45,23.3,31,7.4,-9.9
 2005/01/01,13:00,25,31,7.4,-9.9
 2005/01/01,13:15,26.2,31,7.5,-9.9
 2005/01/01,13:30,26.2,31,8,-9.9
 2005/01/01,13:45,25.8,32,7.7,-9.9
 2005/01/01,14:00,25.9,33,7.6,-9.9
 2005/01/01,14:15,26.2,33,7.5,-9.9
 2005/01/01,14:30,26.5,32,7.8,-9.9
 2005/01/01,14:45,26.7,31,7.5,-9.9
 2005/01/01,15:00,26.6,30,7.4,-9.9
 2005/01/01,15:15,27.1,29,7.4,-9.9
 2005/01/01,15:30,27.3,29,7.4,-9.9
 2005/01/01,15:45,27.4,28,7.4,-9.9
 2005/01/01,16:00,26.9,29,7.4,-9.9
 2005/01/01,16:15,22.1,38,7.3,-9.9
 2005/01/01,16:30,26,31,7.2,-9.9
 2005/01/01,16:45,26.4,29,7.1,-9.9
 2005/01/01,17:00,26.4,29,7,-9.9
 2005/01/01,17:15,26.4,30,6.9,-9.9
 2005/01/01,17:30,24.6,28,6.9,-9.9
 2005/01/01,17:45,23.2,26,6.7,-9.9
 2005/01/01,18:00,22.7,27,6.6,-9.9
 2005/01/01,18:15,19.7,31,6.5,-9.9
 2005/01/01,18:30,21.2,30,6.4,-9.9
 2005/01/01,18:45,22.7,32,6.1,-9.9
 2005/01/01,19:00,25,33,6,-9.9
 2005/01/01,19:15,22.8,29,5.9,-9.9
 2005/01/01,19:30,22.3,27,5.8,-9.9
 2005/01/01,19:45,18.5,34,5.6,-9.9
 2005/01/01,20:00,23.6,29,5.5,-9.9
 2005/01/01,20:15,24.5,30,5.6,-9.9
 2005/01/01,20:30,25.1,34,5.5,-9.9
 2005/01/01,20:45,25,34,5.5,-9.9
 2005/01/01,21:00,24.7,32,5.5,-9.9
 2005/01/01,21:15,23.9,32,5.4,-9.9
 2005/01/01,21:30,20.6,40,5.3,-9.9
 2005/01/01,21:45,23.3,33,5.3,-9.9
 2005/01/01,22:00,23.6,32,5.2,-9.9
 2005/01/01,22:15,23.6,31,5.2,-9.9
 2005/01/01,22:30,23.6,31,5.1,-9.9
 2005/01/01,22:45,22.6,32,5.1,-9.9
 2005/01/01,23:00,20.8,37,5.2,-9.9
 2005/01/01,23:15,23,33,5.2,-9.9
 2005/01/01,23:30,23.2,32,5.2,-9.9
 2005/01/01,23:45,23.3,32,5.2,-9.9
 2005/01/02, 0:00,22.9,32,5.4,-9.9
 2005/01/02, 0:15,18.9,40,5.4,-9.9
 2005/01/02, 0:30,22.3,34,5.3,-9.9
 2005/01/02, 0:45,22.8,31,5.1,-9.9
 2005/01/02, 1:00,22.8,31,5.1,-9.9
 2005/01/02, 1:15,22.8,30,5.1,-9.9
 2005/01/02, 1:30,17.5,42,5,-9.9
 2005/01/02, 1:45,16.1,45,4.9,-9.9
 2005/01/02, 2:00,15.5,46,4.8,-9.9
 2005/01/02, 2:15,14.8,48,4.8,-9.9
 2005/01/02, 2:30,14.3,48,4.8,-9.9
 2005/01/02, 2:45,13.8,49,4.8,-9.9
 2005/01/02, 3:00,13.3,50,4.8,-9.9
 2005/01/02, 3:15,12.9,51,4.6,-9.9
 2005/01/02, 3:30,12.5,51,4.6,-9.9
 2005/01/02, 3:45,12.2,52,4.5,-9.9
 2005/01/02, 4:00,12,52,4.5,-9.9
 2005/01/02, 4:15,11.7,53,4.4,-9.9
 2005/01/02, 4:30,11.3,53,4.4,-9.9
 2005/01/02, 4:45,11.1,53,4.3,-9.9
 2005/01/02, 5:00,10.9,53,4.3,-9.9
 2005/01/02, 5:15,10.6,54,4.3,-9.9
 2005/01/02, 5:30,10.4,54,4.1,-9.9
 2005/01/02, 5:45,10.3,54,4.1,-9.9
 2005/01/02, 6:00,10.2,54,4,-9.9
 2005/01/02, 6:15,10.2,55,4,-9.9
 2005/01/02, 6:30,17.5,36,3.9,-9.9
 2005/01/02, 6:45,18.6,34,3.8,-9.9
 2005/01/02, 7:00,15.7,41,3.8,-9.9
 2005/01/02, 7:15,20.2,30,3.8,-9.9
 2005/01/02, 7:30,20.4,29,3.9,-9.9
 2005/01/02, 7:45,17.1,37,3.9,-9.9
 2005/01/02, 8:00,18.9,30,3.9,-9.9
 2005/01/02, 8:15,18.9,30,3.9,-9.9
 2005/01/02, 8:30,19.4,29,4.2,-9.9
 2005/01/02, 8:45,19.2,30,4.9,-9.9
 2005/01/02, 9:00,19.8,31,5.3,-9.9
 2005/01/02, 9:15,21.8,30,5.6,-9.9
 2005/01/02, 9:30,23.1,32,5.7,-9.9
 2005/01/02, 9:45,23.5,32,5.8,-9.9
 2005/01/02,10:00,23.4,35,5.8,-9.9
 2005/01/02,10:15,22.3,31,6.2,-9.9
 2005/01/02,10:30,22.2,29,6.4,-9.9
 2005/01/02,10:45,18.4,39,6.4,-9.9
 2005/01/02,11:00,21.2,30,6.5,-9.9
 2005/01/02,11:15,21.2,31,6.7,-9.9
 2005/01/02,11:30,21.5,32,6.8,-9.9
 2005/01/02,11:45,21.9,29,7,-9.9
 2005/01/02,12:00,21.9,31,7,-9.9
 2005/01/02,12:15,22.4,31,7.1,-9.9
 2005/01/02,12:30,23.3,31,7.1,-9.9
 2005/01/02,12:45,23.8,28,7.1,-9.9
 2005/01/02,13:00,24.2,28,7.6,-9.9
 2005/01/02,13:15,24.2,27,7.5,-9.9
 2005/01/02,13:30,25.7,25,7.7,-9.9
 2005/01/02,13:45,27.3,27,7.6,-9.9
 2005/01/02,14:00,27.7,27,7.9,-9.9
 2005/01/02,14:15,28.1,27,8,-9.9
 2005/01/02,14:30,27.5,30,8.1,-9.9
 2005/01/02,14:45,24.8,27,8.1,-9.9
 2005/01/02,15:00,24.8,25,8.9,-9.9
 2005/01/02,15:15,25.4,23,8.7,-9.9
 2005/01/02,15:30,23,25,8.9,-9.9
 2005/01/02,15:45,24.1,24,8.9,-9.9
 2005/01/02,16:00,24.8,23,8.7,-9.9
 2005/01/02,16:15,24.7,22,8.6,-9.9
 2005/01/02,16:30,24.1,22,8.5,-9.9
 2005/01/02,16:45,23.8,22,8.5,-9.9
 2005/01/02,17:00,23.1,23,8.1,-9.9
 2005/01/02,17:15,25.3,25,7.7,-9.9
 2005/01/02,17:30,24.7,25,7.4,-9.9
 2005/01/02,17:45,24.5,25,7.1,-9.9
 2005/01/02,18:00,24.2,25,6,-9.9
 2005/01/02,18:15,24.6,25,6.8,-9.9
 2005/01/02,18:30,24.9,27,6.5,-9.9
 2005/01/02,18:45,24.7,27,6.4,-9.9
 2005/01/02,19:00,23.8,27,6.4,-9.9
 2005/01/02,19:15,22.6,26,6.1,-9.9
 2005/01/02,19:30,18.6,32,5.8,-9.9
 2005/01/02,19:45,21.4,28,5.7,-9.9
 2005/01/02,20:00,23.9,29,5.6,-9.9
 2005/01/02,20:15,25.2,32,5.5,-9.9
 2005/01/02,20:30,26,33,5.3,-9.9
 2005/01/02,20:45,25.2,32,5.6,-9.9
 2005/01/02,21:00,22.9,37,5.3,-9.9
 2005/01/02,21:15,24.6,36,5.2,-9.9
 2005/01/02,21:30,25.9,35,5.1,-9.9
 2005/01/02,21:45,24.2,29,4.4,-9.9
 2005/01/02,22:00,23.5,29,5.4,-9.9
 2005/01/02,22:15,22.3,32,5.2,-9.9
 2005/01/02,22:30,20.7,37,4.8,-9.9
 2005/01/02,22:45,23.4,32,4.7,-9.9
 2005/01/02,23:00,19.9,36,4.7,-9.9
 2005/01/02,23:15,17.3,43,4.6,-9.9
 2005/01/02,23:30,16.6,46,4.4,-9.9
 2005/01/02,23:45,16.2,47,4.4,-9.9
 2005/01/03, 0:00,15.6,48,4.5,-9.9
 2005/01/03, 0:15,14.9,47,4.4,-9.9
 2005/01/03, 0:30,14.4,47,4.3,-9.9
 2005/01/03, 0:45,14,47,4.3,-9.9
 2005/01/03, 1:00,13.6,48,4.3,-9.9
 2005/01/03, 1:15,13.2,48,4.3,-9.9
 2005/01/03, 1:30,12.9,49,4.3,-9.9
 2005/01/03, 1:45,12.6,49,4.4,-9.9
 2005/01/03, 2:00,12.4,50,4.3,-9.9
 2005/01/03, 2:15,12.2,50,4.3,-9.9
 2005/01/03, 2:30,12,50,4.2,-9.9
 2005/01/03, 2:45,11.7,51,4.1,-9.9
 2005/01/03, 3:00,11.4,50,4.1,-9.9
 2005/01/03, 3:15,11,49,4.2,-9.9
 2005/01/03, 3:30,10.7,49,4.1,-9.9
 2005/01/03, 3:45,12.4,47,4,-9.9
 2005/01/03, 4:00,19.1,33,3.9,-9.9
 2005/01/03, 4:15,20.4,31,3.9,-9.9
 2005/01/03, 4:30,16.5,39,3.8,-9.9
 2005/01/03, 4:45,21.2,31,3.9,-9.9
 2005/01/03, 5:00,22.1,29,3.9,-9.9
 2005/01/03, 5:15,21.5,30,3.9,-9.9
 2005/01/03, 5:30,20.4,32,3.8,-9.9
 2005/01/03, 5:45,22.5,29,3.7,-9.9
 2005/01/03, 6:00,22.7,28,3.4,-9.9
 2005/01/03, 6:15,19.1,35,3.4,-9.9
 2005/01/03, 6:30,22.2,29,3.2,-9.9
 2005/01/03, 6:45,22.8,28,3.1,-9.9
 2005/01/03, 7:00,22.8,28,3.1,-9.9
 2005/01/03, 7:15,18.3,35,3,-9.9
 2005/01/03, 7:30,22.6,28,3,-9.9
 2005/01/03, 7:45,22.7,28,2.9,-9.9
 2005/01/03, 8:00,13.7,37,3,-9.9
 2005/01/03, 8:15,16.5,32,3.4,-9.9
 2005/01/03, 8:30,18.8,27,3.7,-9.9
 2005/01/03, 8:45,18.9,27,4.1,-9.9
 2005/01/03, 9:00,16.8,33,4.4,-9.9
 2005/01/03, 9:15,19.6,27,4.8,-9.9
 2005/01/03, 9:30,20.1,28,5.3,-9.9
 2005/01/03, 9:45,20.3,27,5.4,-9.9
 2005/01/03,10:00,21.6,27,5.6,-9.9
 2005/01/03,10:15,22.7,27,5.8,-9.9
 2005/01/03,10:30,23.3,32,6.2,-9.9
 2005/01/03,10:45,24,32,6.7,-9.9
 2005/01/03,11:00,24.5,31,6.8,-9.9
 2005/01/03,11:15,21.7,39,6.8,-9.9
 2005/01/03,11:30,25.9,35,6.8,-9.9
 2005/01/03,11:45,26.6,31,7.1,-9.9
 2005/01/03,12:00,26.8,29,7.2,-9.9
 2005/01/03,12:15,26.5,28,7.4,-9.9
 2005/01/03,12:30,26.7,27,7.5,-9.9
 2005/01/03,12:45,26.7,27,7.7,-9.9
 2005/01/03,13:00,26.5,27,7.8,-9.9
 2005/01/03,13:15,26.9,26,8,-9.9
 2005/01/03,13:30,26.9,25,8,-9.9
 2005/01/03,13:45,27,25,8.2,-9.9
 2005/01/03,14:00,26.6,25,8.4,-9.9
 2005/01/03,14:15,26.7,23,8.5,-9.9
 2005/01/03,14:30,27.1,23,8.6,-9.9
 2005/01/03,14:45,26.5,23,8.8,-9.9
 2005/01/03,15:00,26.6,23,8.8,-9.9
 2005/01/03,15:15,26.6,23,8.9,-9.9
 2005/01/03,15:30,20.2,34,9.7,-9.9
 2005/01/03,15:45,19.9,43,9.3,-9.9
 2005/01/03,16:00,19.3,50,9.3,-9.9
 2005/01/03,16:15,18.6,50,9.4,-9.9
 2005/01/03,16:30,18.2,51,9.3,-9.9
 2005/01/03,16:45,18.1,51,9.3,-9.9
 2005/01/03,17:00,17.9,51,9.2,-9.9
 2005/01/03,17:15,17.7,51,9.2,-9.9
 2005/01/03,17:30,17.4,51,9.1,-9.9
 2005/01/03,17:45,17.1,52,9,-9.9
 2005/01/03,18:00,16.8,51,9,-9.9
 2005/01/03,18:15,17.2,50,9,-9.9
 2005/01/03,18:30,18.5,48,8.9,-9.9
 2005/01/03,18:45,19.2,46,8.9,-9.9
 2005/01/03,19:00,18.8,48,8.9,-9.9
 2005/01/03,19:15,17.5,43,8.9,-9.9
 2005/01/03,19:30,16.9,44,8.9,-9.9
 2005/01/03,19:45,16.9,43,8.8,-9.9
 2005/01/03,20:00,18.2,51,8.7,-9.9
 2005/01/03,20:15,18.3,51,8.6,-9.9
 2005/01/03,20:30,18.5,52,8.6,-9.9
 2005/01/03,20:45,18.6,52,8.6,-9.9
 2005/01/03,21:00,18.5,54,8.7,-9.9
 2005/01/03,21:15,18.7,54,8.6,-9.9
 2005/01/03,21:30,18.7,53,8.6,-9.9
 2005/01/03,21:45,18.2,53,8.6,-9.9
 2005/01/03,22:00,17.5,54,8.5,-9.9
 2005/01/03,22:15,17.1,56,8.5,-9.9
 2005/01/03,22:30,16.8,57,8.5,-9.9
 2005/01/03,22:45,16.6,57,8.6,-9.9
 2005/01/03,23:00,16.5,57,8.5,-9.9
 2005/01/03,23:15,16.7,58,8.4,-9.9
 2005/01/03,23:30,16.6,59,8.4,-9.9
 2005/01/03,23:45,16.7,61,8.5,-9.9
 2005/01/04, 0:00,16.2,62,8.4,-9.9
 2005/01/04, 0:15,15.6,61,8.3,-9.9
 2005/01/04, 0:30,15.3,60,8.2,-9.9
 2005/01/04, 0:45,15.1,59,8.2,-9.9
 2005/01/04, 1:00,14.7,59,8,-9.9
 2005/01/04, 1:15,14.5,59,8,-9.9
 2005/01/04, 1:30,14.3,59,8,-9.9
 2005/01/04, 1:45,14.1,59,8,-9.9
 2005/01/04, 2:00,13.9,59,8,-9.9
 2005/01/04, 2:15,13.8,59,8,-9.9
 2005/01/04, 2:30,13.5,60,7.9,-9.9
 2005/01/04, 2:45,13.4,60,7.9,-9.9
 2005/01/04, 3:00,13.3,59,7.8,-9.9
 2005/01/04, 3:15,13.1,59,7.7,-9.9
 2005/01/04, 3:30,13,60,7.7,-9.9
 2005/01/04, 3:45,12.9,60,7.7,-9.9
 2005/01/04, 4:00,12.8,60,7.7,-9.9
 2005/01/04, 4:15,12.7,60,7.5,-9.9
 2005/01/04, 4:30,12.6,60,7.4,-9.9
 2005/01/04, 4:45,12.4,60,7.4,-9.9
 2005/01/04, 5:00,12.3,60,7.3,-9.9
 2005/01/04, 5:15,12.3,60,7.2,-9.9
 2005/01/04, 5:30,12.1,60,7.1,-9.9
 2005/01/04, 5:45,12.1,60,7.1,-9.9
 2005/01/04, 6:00,12,61,7.1,-9.9
 2005/01/04, 6:15,12,62,7.1,-9.9
 2005/01/04, 6:30,16.6,49,7,-9.9
 2005/01/04, 6:45,18.9,43,7.2,-9.9
 2005/01/04, 7:00,17.2,47,7.1,-9.9
 2005/01/04, 7:15,14.1,54,7.3,-9.9
 2005/01/04, 7:30,13.4,57,7.4,-9.9
 2005/01/04, 7:45,12.9,59,7.4,-9.9
 2005/01/04, 8:00,12.7,59,7.5,-9.9
 2005/01/04, 8:15,12.7,62,7.8,-9.9
 2005/01/04, 8:30,12.8,63,7.9,-9.9
 2005/01/04, 8:45,13,62,8.5,-9.9
 2005/01/04, 9:00,13.2,66,8.8,-9.9
 2005/01/04, 9:15,13.7,65,8.8,-9.9
 2005/01/04, 9:30,13.6,65,8.9,-9.9
 2005/01/04, 9:45,13.8,64,9.1,-9.9
 2005/01/04,10:00,15.1,57,9.2,-9.9
 2005/01/04,10:15,16.3,54,9.3,-9.9
 2005/01/04,10:30,16.8,54,9.4,-9.9
 2005/01/04,10:45,16.8,53,9.5,-9.9
 2005/01/04,11:00,16.6,54,9.6,-9.9
 2005/01/04,11:15,16.4,54,9.7,-9.9
 2005/01/04,11:30,16.6,54,9.8,-9.9
 2005/01/04,11:45,16.6,53,10,-9.9
 2005/01/04,12:00,16.3,53,10,-9.9
 2005/01/04,12:15,15.9,53,10.6,-9.9
 2005/01/04,12:30,16.1,51,10.5,-9.9
 2005/01/04,12:45,15.4,53,10.4,-9.9
 2005/01/04,13:00,16,53,10.3,-9.9
 2005/01/04,13:15,15.8,54,10.3,-9.9
 2005/01/04,13:30,15.6,55,10.2,-9.9
 2005/01/04,13:45,16,53,10.3,-9.9
 2005/01/04,14:00,17.5,49,10.3,-9.9
 2005/01/04,14:15,18.3,48,10.4,-9.9
 2005/01/04,14:30,18.3,48,10.4,-9.9
 2005/01/04,14:45,19,48,9.9,-9.9
 2005/01/04,15:00,18.1,42,10.7,-9.9
 2005/01/04,15:15,18.3,41,10.6,-9.9
 2005/01/04,15:30,17.4,43,10.4,-9.9
 2005/01/04,15:45,17.6,47,9.4,-9.9
 2005/01/04,16:00,17.4,48,9.8,-9.9
 2005/01/04,16:15,17.3,47,9.7,-9.9
 2005/01/04,16:30,17.2,47,9.5,-9.9
 2005/01/04,16:45,17.1,47,9.4,-9.9
 2005/01/04,17:00,17,47,9.2,-9.9
 2005/01/04,17:15,16.8,47,9.2,-9.9
 2005/01/04,17:30,16.7,47,9,-9.9
 2005/01/04,17:45,16.5,47,8.8,-9.9
 2005/01/04,18:00,16.1,46,8.6,-9.9
 2005/01/04,18:15,16.1,45,8.3,-9.9
 2005/01/04,18:30,15.9,45,8.3,-9.9
 2005/01/04,18:45,15.9,46,8.3,-9.9
 2005/01/04,19:00,15.2,45,8.3,-9.9
 2005/01/04,19:15,16.2,46,8.4,-9.9
 2005/01/04,19:30,16.2,49,8.3,-9.9
 2005/01/04,19:45,16.3,49,8.2,-9.9
 2005/01/04,20:00,16.7,52,8.2,-9.9
 2005/01/04,20:15,16.7,52,8.1,-9.9
 2005/01/04,20:30,16.7,52,8,-9.9
 2005/01/04,20:45,16.1,52,8,-9.9
 2005/01/04,21:00,15.4,53,8,-9.9
 2005/01/04,21:15,14.9,55,8,-9.9
 2005/01/04,21:30,14.6,55,7.9,-9.9
 2005/01/04,21:45,14.4,55,7.9,-9.9
 2005/01/04,22:00,14.2,55,7.7,-9.9
 2005/01/04,22:15,14,54,7.7,-9.9
 2005/01/04,22:30,13.8,54,7.7,-9.9
 2005/01/04,22:45,13.8,54,7.6,-9.9
 2005/01/04,23:00,13.4,55,7.6,-9.9
 2005/01/04,23:15,13.3,55,7.5,-9.9
 2005/01/04,23:30,13.1,55,7.4,-9.9
 2005/01/04,23:45,18.7,42,7.4,-9.9
 2005/01/05, 0:00,19.8,40,7.4,-9.9
 2005/01/05, 0:15,20.4,39,7.4,-9.9
 2005/01/05, 0:30,17.9,43,7.3,-9.9
 2005/01/05, 0:45,15.2,50,7.2,-9.9
 2005/01/05, 1:00,14.4,52,7.1,-9.9
 2005/01/05, 1:15,13.8,53,7.1,-9.9
 2005/01/05, 1:30,13.3,54,7.1,-9.9
 2005/01/05, 1:45,12.9,55,6.9,-9.9
 2005/01/05, 2:00,12.7,55,6.8,-9.9
 2005/01/05, 2:15,12.4,56,6.8,-9.9
 2005/01/05, 2:30,12.2,56,6.6,-9.9
 2005/01/05, 2:45,12,56,6.6,-9.9
 2005/01/05, 3:00,11.8,56,6.5,-9.9
 2005/01/05, 3:15,11.6,57,6.5,-9.9
 2005/01/05, 3:30,11.5,57,6.4,-9.9
 2005/01/05, 3:45,11.3,57,6.4,-9.9
 2005/01/05, 4:00,11.2,57,6.3,-9.9
 2005/01/05, 4:15,11.1,57,6.4,-9.9
 2005/01/05, 4:30,10.9,58,6.2,-9.9
 2005/01/05, 4:45,10.8,58,6.2,-9.9
 2005/01/05, 5:00,10.6,58,6.2,-9.9
 2005/01/05, 5:15,10.6,58,6.2,-9.9
 2005/01/05, 5:30,10.5,58,6.1,-9.9
 2005/01/05, 5:45,10.4,58,6.1,-9.9
 2005/01/05, 6:00,10.2,58,6,-9.9
 2005/01/05, 6:15,10.2,58,5.9,-9.9
 2005/01/05, 6:30,10.1,59,5.9,-9.9
 2005/01/05, 6:45,10,59,5.9,-9.9
 2005/01/05, 7:00,10,61,6,-9.9
 2005/01/05, 7:15,14.1,50,5.8,-9.9
 2005/01/05, 7:30,16.4,45,5.8,-9.9
 2005/01/05, 7:45,17.1,43,5.8,-9.9
 2005/01/05, 8:00,15.6,46,5.7,-9.9
 2005/01/05, 8:15,12.3,55,5.8,-9.9
 2005/01/05, 8:30,12.1,57,5.9,-9.9
 2005/01/05, 8:45,12.6,58,6,-9.9
 2005/01/05, 9:00,12.8,57,5.8,-9.9
 2005/01/05, 9:15,12.6,58,5.9,-9.9
 2005/01/05, 9:30,13.5,56,5.9,-9.9
 2005/01/05, 9:45,13.5,57,6,-9.9
 2005/01/05,10:00,13.4,57,5.9,-9.9
 2005/01/05,10:15,13.4,56,5.9,-9.9
 2005/01/05,10:30,13.4,55,6,-9.9
 2005/01/05,10:45,13.3,54,6.1,-9.9
 2005/01/05,11:00,13.3,53,6.1,-9.9
 2005/01/05,11:15,11.9,53,6.2,-9.9
 2005/01/05,11:30,12.9,50,6.2,-9.9
 2005/01/05,11:45,14.2,48,6.2,-9.9
 2005/01/05,12:00,14.3,48,6.2,-9.9
 2005/01/05,12:15,14.8,47,6.3,-9.9
 2005/01/05,12:30,14.7,48,6.4,-9.9
 2005/01/05,12:45,14.1,50,6.4,-9.9
 2005/01/05,13:00,13.9,51,6.4,-9.9
 2005/01/05,13:15,13.4,51,6.7,-9.9
 2005/01/05,13:30,13.5,49,6.6,-9.9
 2005/01/05,13:45,13.6,49,6.6,-9.9
 2005/01/05,14:00,12.4,50,6.7,-9.9
 2005/01/05,14:15,11.9,53,6.6,-9.9
 2005/01/05,14:30,11.5,54,6.6,-9.9
 2005/01/05,14:45,11.3,55,6.6,-9.9
 2005/01/05,15:00,11.1,57,6.7,-9.9
 2005/01/05,15:15,10.8,55,6.8,-9.9
 2005/01/05,15:30,11.5,53,6.7,-9.9
 2005/01/05,15:45,11.5,54,6.8,-9.9
 2005/01/05,16:00,12.5,54,6.8,-9.9
 2005/01/05,16:15,12.8,53,6.7,-9.9
 2005/01/05,16:30,12.9,53,6.7,-9.9
 2005/01/05,16:45,12.9,54,6.7,-9.9
 2005/01/05,17:00,12.9,54,6.7,-9.9
 2005/01/05,17:15,13,54,6.7,-9.9
 2005/01/05,17:30,13.7,55,6.6,-9.9
 2005/01/05,17:45,13.6,54,6.6,-9.9
 2005/01/05,18:00,13.4,54,6.6,-9.9
 2005/01/05,18:15,13.4,54,6.5,-9.9
 2005/01/05,18:30,13.4,53,6.5,-9.9
 2005/01/05,18:45,13.6,53,6.5,-9.9
 2005/01/05,19:00,13.1,51,6.5,-9.9
 2005/01/05,19:15,12.8,50,6.5,-9.9
 2005/01/05,19:30,12.6,50,6.5,-9.9
 2005/01/05,19:45,12.4,50,6.5,-9.9
 2005/01/05,20:00,13.3,53,6.5,-9.9
 2005/01/05,20:15,13.4,54,6.5,-9.9
 2005/01/05,20:30,13.6,54,6.5,-9.9
 2005/01/05,20:45,13.5,53,6.5,-9.9
 2005/01/05,21:00,13.4,53,6.4,-9.9
 2005/01/05,21:15,12.8,56,6.5,-9.9
 2005/01/05,21:30,12.3,58,6.5,-9.9
 2005/01/05,21:45,12,59,6.3,-9.9
 2005/01/05,22:00,11.7,60,6.2,-9.9
 2005/01/05,22:15,15.9,47,6.2,-9.9
 2005/01/05,22:30,18.1,44,6.4,-9.9
 2005/01/05,22:45,18,44,6.2,-9.9
 2005/01/05,23:00,18.2,44,6.2,-9.9
 2005/01/05,23:15,18.1,44,6,-9.9
 2005/01/05,23:30,18.5,43,5.9,-9.9
 2005/01/05,23:45,17.8,43,5.9,-9.9
 2005/01/06, 0:00,19.2,40,5.8,-9.9
 2005/01/06, 0:15,19.6,39,5.7,-9.9
 2005/01/06, 0:30,16.6,44,5.5,-9.9
 2005/01/06, 0:45,14.7,49,5.4,-9.9
 2005/01/06, 1:00,13.6,51,5.4,-9.9
 2005/01/06, 1:15,12.9,53,5.3,-9.9
 2005/01/06, 1:30,12.3,54,5.1,-9.9
 2005/01/06, 1:45,12,55,5,-9.9
 2005/01/06, 2:00,11.6,55,4.9,-9.9
 2005/01/06, 2:15,11.3,56,4.9,-9.9
 2005/01/06, 2:30,10.9,57,4.8,-9.9
 2005/01/06, 2:45,10.7,57,4.7,-9.9
 2005/01/06, 3:00,10.4,57,4.7,-9.9
 2005/01/06, 3:15,10.2,57,4.5,-9.9
 2005/01/06, 3:30,10,57,4.4,-9.9
 2005/01/06, 3:45,9.8,58,4.4,-9.9
 2005/01/06, 4:00,9.6,58,4.3,-9.9
 2005/01/06, 4:15,9.4,58,4.2,-9.9
 2005/01/06, 4:30,9.3,58,4.2,-9.9
 2005/01/06, 4:45,9.2,58,4.1,-9.9
 2005/01/06, 5:00,9,58,4,-9.9
 2005/01/06, 5:15,8.9,59,3.9,-9.9
 2005/01/06, 5:30,8.8,58,3.9,-9.9
 2005/01/06, 5:45,8.6,59,3.9,-9.9
 2005/01/06, 6:00,8.6,60,3.8,-9.9
 2005/01/06, 6:15,8.5,62,3.8,-9.9
 2005/01/06, 6:30,13.2,47,3.8,-9.9
 2005/01/06, 6:45,15.6,42,3.9,-9.9
 2005/01/06, 7:00,13.5,47,3.8,-9.9
 2005/01/06, 7:15,11.4,54,3.8,-9.9
 2005/01/06, 7:30,10.2,56,4,-9.9
 2005/01/06, 7:45,10,60,4,-9.9
 2005/01/06, 8:00,9.8,62,4.2,-9.9
 2005/01/06, 8:15,9.4,62,4.4,-9.9
 2005/01/06, 8:30,10.2,58,4.4,-9.9
 2005/01/06, 8:45,10.3,54,5.5,-9.9
 2005/01/06, 9:00,9.9,55,5.5,-9.9
 2005/01/06, 9:15,9.3,56,5.7,-9.9
 2005/01/06, 9:30,9.7,58,5.5,-9.9
 2005/01/06, 9:45,9.7,59,5.5,-9.9
 2005/01/06,10:00,9.7,59,5.7,-9.9
 2005/01/06,10:15,9.5,59,5.7,-9.9
 2005/01/06,10:30,9.5,60,5.7,-9.9
 2005/01/06,10:45,9.4,59,5.8,-9.9
 2005/01/06,11:00,9.4,59,5.8,-9.9
 2005/01/06,11:15,9.4,59,5.9,-9.9
 2005/01/06,11:30,9.5,59,5.8,-9.9
 2005/01/06,11:45,10.8,64,5.9,-9.9
 2005/01/06,12:00,10.6,64,5.9,-9.9
 2005/01/06,12:15,11,66,5.9,-9.9
 2005/01/06,12:30,11.7,61,6.1,-9.9
 2005/01/06,12:45,11.9,59,6,-9.9
 2005/01/06,13:00,11.8,58,6.1,-9.9
 2005/01/06,13:15,11.5,60,6.2,-9.9
 2005/01/06,13:30,11.3,61,6.2,-9.9
 2005/01/06,13:45,11.1,62,6.2,-9.9
 2005/01/06,14:00,10.9,62,6.2,-9.9
 2005/01/06,14:15,10.6,63,6.2,-9.9
 2005/01/06,14:30,10.5,63,6.2,-9.9
 2005/01/06,14:45,10.4,62,6.2,-9.9
 2005/01/06,15:00,10.4,62,6.2,-9.9
 2005/01/06,15:15,10.3,63,6.2,-9.9
 2005/01/06,15:30,10.3,63,6.2,-9.9
 2005/01/06,15:45,10.2,63,6.3,-9.9
 2005/01/06,16:00,10,63,6.4,-9.9
 2005/01/06,16:15,10.4,63,6.4,-9.9
 2005/01/06,16:30,11.9,59,6.4,-9.9
 2005/01/06,16:45,12,56,6.4,-9.9
 2005/01/06,17:00,13.3,53,6.4,-9.9
 2005/01/06,17:15,13.8,52,6.4,-9.9
 2005/01/06,17:30,14.4,51,6.4,-9.9
 2005/01/06,17:45,14.5,51,6.4,-9.9
 2005/01/06,18:00,14.5,51,6.5,-9.9
 2005/01/06,18:15,14.4,52,6.5,-9.9
 2005/01/06,18:30,14,53,6.4,-9.9
 2005/01/06,18:45,13.7,54,6.5,-9.9
 2005/01/06,19:00,13.2,54,6.5,-9.9
 2005/01/06,19:15,16.8,43,6.6,-9.9
 2005/01/06,19:30,17.9,42,6.5,-9.9
 2005/01/06,19:45,18.2,48,6.5,-9.9
 2005/01/06,20:00,18.7,48,6.5,-9.9
 2005/01/06,20:15,18.7,51,6.5,-9.9
 2005/01/06,20:30,18.6,51,6.6,-9.9
 2005/01/06,20:45,19,48,6.6,-9.9
 2005/01/06,21:00,17.9,51,6.7,-9.9
 2005/01/06,21:15,19.1,49,6.6,-9.9
 2005/01/06,21:30,18.8,49,6.6,-9.9
 2005/01/06,21:45,18.9,49,6.7,-9.9
 2005/01/06,22:00,18.9,50,6.7,-9.9
 2005/01/06,22:15,17.9,52,6.7,-9.9
 2005/01/06,22:30,18.8,50,6.7,-9.9
 2005/01/06,22:45,18.7,50,6.7,-9.9
 2005/01/06,23:00,19,49,6.7,-9.9
 2005/01/06,23:15,18,54,6.7,-9.9
 2005/01/06,23:30,16.3,49,6.9,-9.9
 2005/01/06,23:45,14.8,56,6.9,-9.9
 2005/01/07, 0:00,14.1,58,6.9,-9.9
 2005/01/07, 0:15,13.6,59,6.9,-9.9
 2005/01/07, 0:30,13.2,59,7,-9.9
 2005/01/07, 0:45,12.9,60,6.9,-9.9
 2005/01/07, 1:00,12.6,61,6.9,-9.9
 2005/01/07, 1:15,12.3,61,7,-9.9
 2005/01/07, 1:30,12.1,61,6.9,-9.9
 2005/01/07, 1:45,12,61,6.9,-9.9
 2005/01/07, 2:00,11.7,61,6.9,-9.9
 2005/01/07, 2:15,11.5,62,6.9,-9.9
 2005/01/07, 2:30,11.3,62,6.9,-9.9
 2005/01/07, 2:45,11.2,62,6.9,-9.9
 2005/01/07, 3:00,11.1,62,6.9,-9.9
 2005/01/07, 3:15,10.9,63,6.9,-9.9
 2005/01/07, 3:30,10.9,63,6.9,-9.9
 2005/01/07, 3:45,10.7,63,7,-9.9
 2005/01/07, 4:00,10.6,63,7,-9.9
 2005/01/07, 4:15,10.5,63,6.9,-9.9
 2005/01/07, 4:30,10.4,63,7,-9.9
 2005/01/07, 4:45,10.4,64,7,-9.9
 2005/01/07, 5:00,10.2,64,7.1,-9.9
 2005/01/07, 5:15,10.2,64,7.1,-9.9
 2005/01/07, 5:30,10.1,64,7,-9.9
 2005/01/07, 5:45,10.1,64,7,-9.9
 2005/01/07, 6:00,10.1,66,7,-9.9
 2005/01/07, 6:15,10,67,7,-9.9
 2005/01/07, 6:30,11.1,67,7.1,-9.9
 2005/01/07, 6:45,17,48,7.1,-9.9
 2005/01/07, 7:00,17.4,47,7.1,-9.9
 2005/01/07, 7:15,17.6,45,7.1,-9.9
 2005/01/07, 7:30,14.2,52,7.1,-9.9
 2005/01/07, 7:45,13.3,55,7.1,-9.9
 2005/01/07, 8:00,13.6,54,7.1,-9.9
 2005/01/07, 8:15,13.6,55,7.1,-9.9
 2005/01/07, 8:30,13.5,55,7.1,-9.9
 2005/01/07, 8:45,13.6,55,7.2,-9.9
 2005/01/07, 9:00,13.2,57,7.4,-9.9
 2005/01/07, 9:15,12.8,56,7.4,-9.9
 2005/01/07, 9:30,13.2,55,7.4,-9.9
 2005/01/07, 9:45,13.3,55,7.5,-9.9
 2005/01/07,10:00,13.6,57,7.6,-9.9
 2005/01/07,10:15,14,65,7.7,-9.9
 2005/01/07,10:30,14.2,65,7.9,-9.9
 2005/01/07,10:45,14.3,64,7.9,-9.9
 2005/01/07,11:00,14.7,67,8,-9.9
 2005/01/07,11:15,15.1,66,8,-9.9
 2005/01/07,11:30,14.9,64,8.1,-9.9
 2005/01/07,11:45,14.8,63,8,-9.9
 2005/01/07,12:00,14.8,61,8.1,-9.9
 2005/01/07,12:15,15,59,8.3,-9.9
 2005/01/07,12:30,15.2,58,8.3,-9.9
 2005/01/07,12:45,15.1,55,8.3,-9.9
 2005/01/07,13:00,14.3,55,8.9,-9.9
 2005/01/07,13:15,14.7,54,8.9,-9.9
 2005/01/07,13:30,16.1,49,9.2,-9.9
 2005/01/07,13:45,17,48,9.1,-9.9
 2005/01/07,14:00,16.6,49,9.2,-9.9
 2005/01/07,14:15,16.7,49,9.2,-9.9
 2005/01/07,14:30,17.2,49,9.2,-9.9
 2005/01/07,14:45,17.5,46,9.2,-9.9
 2005/01/07,15:00,17.4,45,9.2,-9.9
 2005/01/07,15:15,17.5,46,9.2,-9.9
 2005/01/07,15:30,17.2,48,9.2,-9.9
 2005/01/07,15:45,16.9,49,9.2,-9.9
 2005/01/07,16:00,16.6,50,9.2,-9.9
 2005/01/07,16:15,15.8,51,9.1,-9.9
 2005/01/07,16:30,16,51,9.1,-9.9
 2005/01/07,16:45,16.5,50,9.1,-9.9
 2005/01/07,17:00,16.3,50,9.1,-9.9
 2005/01/07,17:15,15.9,49,9.1,-9.9
 2005/01/07,17:30,15.2,48,8.9,-9.9
 2005/01/07,17:45,15.5,48,8.9,-9.9
 2005/01/07,18:00,15.1,48,8.9,-9.9
 2005/01/07,18:15,15.3,48,8.6,-9.9
 2005/01/07,18:30,15.7,49,8.6,-9.9
 2005/01/07,18:45,14.9,47,8.5,-9.9
 2005/01/07,19:00,15.2,44,8.1,-9.9
 2005/01/07,19:15,14.9,45,8.3,-9.9
 2005/01/07,19:30,14.5,46,8.2,-9.9
 2005/01/07,19:45,13.5,48,8.2,-9.9
 2005/01/07,20:00,13.6,48,8.1,-9.9
 2005/01/07,20:15,13.6,48,8,-9.9
 2005/01/07,20:30,14.5,52,8,-9.9
 2005/01/07,20:45,14.8,52,8,-9.9
 2005/01/07,21:00,15,53,8,-9.9
 2005/01/07,21:15,15.5,57,7.9,-9.9
 2005/01/07,21:30,14.1,56,8,-9.9
 2005/01/07,21:45,13.8,58,7.9,-9.9
 2005/01/07,22:00,13.6,55,7.8,-9.9
 2005/01/07,22:15,14.1,53,7.8,-9.9
 2005/01/07,22:30,16,46,7.7,-9.9
 2005/01/07,22:45,19.1,39,7.7,-9.9
 2005/01/07,23:00,19.3,41,7.8,-9.9
 2005/01/07,23:15,19.5,42,7.7,-9.9
 2005/01/07,23:30,19.7,42,7.6,-9.9